Wind_Speed
65 65 64 60 59 60 57 50 46 46 46 48 48 47 48 49 45 41 39 39 38 38 41 41 43 43 39 39 40 39 40 40 41 42 43 44 45 47 47 49 51 53 55 57 59 61 63 65 67 69 70 72 74 77 79 81 83 84 83 79 74 68 62 56 50 47 44 41 38 36 34 33 34 37 40 43 45 47 49 48 47 46 45 44 44 43 43 43
65 65 66 61 58 57 55 54 51 47 46 46 47 47 48 46 45 43 39 36 36 37 38 38 41 42 38 41 42 40 42 42 44 44 45 46 47 49 50 51 53 55 57 59 60 62 64 66 67 70 72 74 76 78 81 83 83 81 77 70 64 57 51 47 43 41 38 36 33 31 31 32 35 39 42 44 46 47 46 44 42 41 40 40 40 40 41 41
64 65 65 60 58 57 53 55 57 51 47 46 46 46 46 45 44 44 41 38 37 37 37 38 39 39 37 40 42 40 42 44 45 46 46 47 48 50 51 53 54 56 58 60 61 63 65 67 69 71 73 76 78 81 82 82 79 74 67 60 53 47 43 40 38 36 33 31 29 30 32 35 38 41 43 44 44 42 40 38 37 37 38 39 39 40 41 42
63 63 63 59 56 57 54 55 58 54 49 47 46 47 46 45 44 44 44 42 41 39 40 40 41 42 41 42 44 43 43 45 46 46 47 48 49 51 52 54 56 58 59 61 63 65 67 69 71 73 76 78 80 81 80 76 70 63 56 48 43 39 36 34 32 30 29 28 29 32 36 38 41 42 41 40 39 37 36 36 36 37 38 38 39 40 42 44
62 60 61 58 51 53 53 54 57 55 52 49 47 47 47 46 45 45 46 46 45 44 43 42 43 43 42 43 44 45 45 45 47 47 48 50 51 52 54 56 58 60 61 63 65 67 69 71 73 75 77 78 78 76 72 65 58 50 43 38 34 32 30 29 27 27 28 30 33 36 38 40 40 39 37 35 35 35 35 35 36 36 38 39 40 42 44 46
61 57 60 59 51 48 50 51 54 53 52 52 51 49 48 48 47 46 47 47 46 47 46 45 46 44 43 43 43 45 46 46 47 48 50 51 53 54 56 58 59 62 63 65 67 69 71 72 74 75 76 76 72 66 59 52 45 38 33 30 28 26 25 25 26 27 30 33 35 37 38 38 36 33 32 32 33 34 34 34 35 37 38 40 41 43 46 47
63 58 59 60 55 50 48 49 50 51 51 52 54 52 49 48 48 48 47 47 47 48 47 46 48 47 44 44 44 45 46 47 48 50 52 53 55 57 58 60 61 63 64 66 67 69 71 72 73 74 72 67 61 54 47 40 35 30 26 24 23 22 23 25 27 30 33 35 36 36 35 33 29 29 30 31 32 32 33 34 36 38 40 41 43 45 47 48
66 61 59 59 57 54 51 50 49 51 50 49 50 51 49 47 47 49 47 47 47 47 46 46 46 46 44 44 45 46 47 49 50 52 53 55 57 58 59 60 62 63 64 66 68 69 70 71 70 67 62 55 48 41 35 31 26 23 20 19 20 22 24 27 30 32 34 35 34 32 29 27 27 28 29 31 31 32 34 35 37 39 41 42 44 46 47 49
69 64 61 58 56 54 53 52 51 51 51 49 47 45 43 43 45 47 49 49 46 44 45 45 45 45 45 47 48 49 49 50 51 53 54 55 56 58 59 60 62 63 64 66 67 68 67 66 62 56 50 42 36 31 27 23 20 17 17 18 21 24 27 29 31 33 33 32 29 26 25 26 27 28 29 30 31 32 34 36 38 40 41 43 45 46 47 48
68 68 64 60 55 52 52 51 49 49 49 48 46 41 38 39 42 45 47 49 47 44 45 46 46 46 47 48 50 50 51 51 51 52 53 54 55 57 58 60 61 63 64 65 65 64 61 56 50 44 37 31 26 22 19 17 15 15 17 20 24 27 29 30 31 31 29 26 24 24 25 27 27 28 29 30 31 33 35 37 39 40 42 44 45 46 47 48
63 65 65 62 56 52 50 48 45 44 43 43 42 40 37 37 39 40 42 44 45 45 46 46 46 46 47 48 49 49 49 49 50 50 51 53 55 57 59 60 61 62 61 61 59 55 50 44 38 31 26 22 19 17 15 13 14 16 19 23 26 28 29 29 28 26 24 23 24 25 26 26 26 27 28 29 31 33 35 37 39 40 42 44 45 46 46 48
55 58 60 59 56 51 47 44 42 41 41 41 40 39 37 36 36 37 39 40 42 44 45 46 46 46 47 47 47 47 48 49 49 50 52 54 56 57 58 58 58 57 55 52 49 44 38 32 26 21 18 17 15 13 13 13 14 18 22 26 27 27 26 25 24 23 24 25 25 25 25 25 26 27 28 30 32 33 36 37 38 40 41 43 44 45 46 48
46 50 52 53 52 48 43 41 39 38 40 41 41 39 37 35 35 35 37 39 41 42 43 44 44 45 46 46 46 47 48 50 51 51 53 54 54 54 54 53 51 49 46 42 38 33 27 22 18 16 15 15 13 12 11 13 17 21 25 26 26 25 23 22 23 25 25 24 24 24 25 25 27 29 30 31 33 34 36 37 38 39 41 42 43 45 46 48
38 41 43 45 46 44 41 38 36 36 37 38 38 37 36 34 33 33 35 37 39 40 41 42 42 44 45 45 46 47 49 50 50 51 51 51 50 49 48 45 43 40 36 32 28 22 18 15 14 13 12 11 10 9 11 16 21 24 25 25 23 21 21 23 25 25 23 23 24 24 26 27 30 31 32 33 34 35 36 37 38 39 41 42 43 45 46 48
34 35 36 36 38 38 36 35 33 33 32 32 32 33 33 32 32 32 34 36 37 38 40 40 41 43 44 45 46 47 47 48 48 48 47 46 44 43 40 38 35 31 27 23 19 15 13 12 12 11 9 8 8 10 15 20 23 24 23 21 18 19 22 24 23 22 22 23 25 26 28 30 31 33 33 34 35 35 36 36 37 39 41 42 43 45 47 48
32 33 33 32 31 30 29 28 28 28 28 29 30 31 31 31 31 31 32 33 35 36 37 39 40 41 43 44 45 45 45 44 44 43 41 39 38 36 33 30 26 23 19 16 13 12 11 11 10 8 7 6 9 14 19 21 22 22 19 17 18 21 22 21 20 21 23 25 27 28 29 31 33 33 34 34 35 35 35 36 38 40 41 42 43 44 46 48
29 31 31 31 30 29 29 28 29 29 30 30 31 31 30 30 30 30 30 31 32 33 35 37 38 39 40 41 42 41 41 40 38 37 35 34 32 29 26 22 19 16 13 12 11 11 11 10 8 5 5 8 12 17 20 20 20 17 15 17 19 20 19 19 20 22 24 25 27 28 30 32 33 34 34 35 34 34 35 36 37 39 40 41 42 44 46 47
29 31 32 32 32 32 32 32 33 33 33 32 32 31 30 30 29 29 29 30 32 33 34 35 36 37 37 38 38 36 35 34 33 32 31 29 26 22 19 16 13 12 11 11 11 10 8 7 4 3 7 10 14 17 18 18 16 13 15 17 17 17 17 19 21 24 25 25 26 28 30 32 33 34 34 34 34 34 35 36 37 38 39 40 41 43 45 46
31 30 30 30 32 32 32 32 33 33 33 32 31 30 29 29 29 29 30 31 32 33 33 34 34 34 34 33 32 31 30 30 29 28 25 21 18 16 14 12 11 11 11 11 9 7 5 3 2 6 9 11 15 16 16 14 11 13 15 15 15 16 17 20 22 24 24 25 27 29 30 31 32 33 33 33 34 34 34 35 36 37 38 39 41 43 44 45
27 25 25 26 28 29 29 29 29 29 28 28 28 27 27 27 28 29 30 31 31 30 30 30 30 29 28 27 27 27 27 26 24 21 18 16 14 12 11 10 11 11 10 8 5 3 2 2 5 7 9 12 14 14 13 11 10 13 14 14 15 16 18 21 24 25 24 25 27 28 29 30 31 31 32 33 33 34 34 35 36 37 38 40 41 43 44 45
26 24 24 24 24 26 26 26 26 25 24 25 25 26 27 28 29 29 30 29 27 26 25 25 25 25 25 25 25 24 22 20 17 16 14 13 12 10 10 9 9 8 7 5 3 1 2 4 6 8 9 11 12 10 11 9 10 12 13 14 15 16 18 22 24 25 24 25 26 28 29 29 29 30 31 33 34 34 34 35 36 37 38 40 41 43 44 45
28 28 26 25 26 26 26 26 26 25 25 25 26 27 28 28 29 28 26 24 22 20 20 20 21 22 22 21 20 18 16 15 14 14 13 11 10 10 9 8 8 6 4 3 1 1 4 5 7 9 9 11 10 8 9 8 9 11 12 13 15 16 19 22 24 24 23 24 25 27 28 29 29 29 30 32 33 34 34 35 36 37 38 39 41 42 44 45
33 31 26 25 27 29 29 29 28 27 27 26 27 27 27 28 26 23 20 18 17 16 16 17 19 19 18 17 16 15 15 14 13 12 11 11 10 10 8 7 6 4 2 1 1 3 4 5 7 9 10 11 8 5 7 8 8 9 12 13 15 18 20 22 23 22 21 22 24 25 27 28 29 30 30 31 32 34 34 35 35 37 38 39 40 42 43 44
34 30 25 23 23 24 25 25 24 23 22 22 22 23 24 22 19 16 15 15 15 14 15 16 16 15 16 15 15 14 14 13 12 12 11 10 9 7 6 4 3 2 1 1 2 4 5 7 8 10 11 10 6 3 6 8 7 8 10 12 15 18 20 21 21 19 20 21 22 24 25 27 28 30 31 31 32 32 34 35 35 37 38 39 40 41 42 43
33 29 24 21 19 19 19 18 18 17 16 16 16 17 17 15 15 15 16 16 15 14 14 15 16 16 16 15 14 13 13 13 13 12 10 8 6 5 3 2 2 1 0 1 3 4 6 8 9 10 9 6 4 4 6 7 7 7 9 12 15 18 19 20 19 17 18 19 20 22 24 26 28 29 30 31 31 32 33 34 35 36 37 38 39 40 40 41
31 27 24 22 21 20 19 19 19 18 18 17 16 16 16 16 17 18 18 16 13 14 16 17 17 17 16 15 14 13 13 13 12 10 8 6 5 3 3 2 2 2 1 2 3 5 6 8 9 8 6 5 5 6 6 7 8 8 9 12 16 17 18 18 17 16 17 18 19 21 23 25 27 29 30 31 32 32 33 33 34 35 36 37 38 38 39 39
28 26 25 24 23 23 22 22 22 22 21 21 19 18 18 18 19 20 17 14 15 18 20 19 18 16 16 15 14 13 12 11 9 8 6 5 5 4 4 4 4 3 3 3 3 5 6 7 8 7 6 6 8 8 7 7 8 8 9 12 14 15 16 16 15 14 15 17 18 20 22 24 26 28 30 32 33 33 33 33 33 34 35 36 37 37 37 38
29 29 28 28 27 26 26 26 26 25 25 24 23 22 21 20 21 17 14 17 20 21 21 19 17 16 15 14 13 12 11 9 7 7 6 6 6 6 6 5 4 3 3 3 3 5 6 7 8 8 8 8 9 9 9 7 8 8 9 11 13 13 14 14 12 12 14 16 18 20 22 24 26 27 29 31 33 33 34 34 33 33 33 34 35 36 36 37
32 32 32 31 30 30 30 29 29 28 28 28 26 25 23 22 18 15 20 22 22 21 20 18 17 16 15 13 12 10 9 9 8 8 8 8 8 8 7 5 4 3 3 3 3 4 6 7 8 8 9 9 10 9 8 7 7 8 9 10 11 12 12 11 10 11 14 16 18 20 23 25 27 28 30 32 33 34 35 35 35 34 33 33 34 36 37 37
36 35 35 34 34 33 33 33 32 31 31 30 28 26 24 19 16 22 25 24 22 20 19 18 16 15 13 12 11 10 10 9 9 10 9 9 9 8 6 4 3 3 3 3 3 4 6 7 8 8 8 9 9 8 7 7 7 8 9 10 11 11 10 9 9 11 14 17 19 21 23 25 27 29 31 32 34 35 36 36 37 37 36 35 35 36 37 37
39 38 38 37 37 36 36 35 34 34 33 31 28 24 18 18 25 27 25 23 21 19 19 17 15 14 13 13 12 11 10 10 10 11 11 10 9 7 5 4 4 4 4 4 3 4 5 6 7 6 7 7 7 7 7 7 7 8 10 11 11 9 8 8 9 12 15 17 19 22 24 26 28 30 31 32 34 35 37 38 38 39 38 37 37 36 36 37
41 41 41 40 40 39 38 36 35 33 31 26 21 17 21 27 28 25 24 22 20 18 17 16 15 14 14 13 12 11 10 10 11 11 11 11 9 7 5 5 5 4 4 4 3 4 5 5 6 5 5 6 6 6 7 7 8 9 10 11 10 8 8 9 11 13 15 17 20 22 25 27 28 29 30 32 33 35 36 38 39 39 39 39 38 37 37 36
40 39 38 37 36 34 33 31 28 25 21 18 20 25 29 29 26 24 23 20 18 17 16 15 14 14 14 14 12 11 11 10 11 11 11 10 9 6 5 5 4 4 4 4 4 4 5 5 6 6 5 5 6 6 7 7 8 9 11 11 10 9 9 10 12 13 15 18 20 23 25 27 28 29 30 31 32 33 35 36 37 39 39 40 39 38 37 37
31 30 29 28 26 24 23 21 19 19 20 24 28 30 29 27 25 23 20 18 16 15 15 15 14 14 14 13 12 12 11 11 11 11 11 10 8 6 5 4 4 3 4 4 4 5 5 6 6 7 7 6 6 7 7 8 9 10 11 12 12 10 9 11 13 14 16 19 21 23 26 27 29 29 30 31 32 33 34 35 36 38 39 40 40 39 38 37
22 21 21 20 19 19 19 20 22 25 28 30 30 29 28 26 24 20 18 15 14 14 14 14 14 14 14 13 13 11 10 10 10 10 10 9 8 6 5 4 3 3 4 4 5 6 6 7 7 8 8 8 8 8 9 10 10 11 11 12 13 12 12 13 14 16 18 20 22 24 26 28 30 30 31 32 33 34 34 35 37 38 40 40 40 39 38 37
19 20 20 21 22 23 24 26 28 29 30 30 28 27 26 24 20 17 15 14 13 13 13 14 14 14 14 13 12 11 10 9 9 10 10 9 7 6 5 4 4 4 5 5 6 7 8 9 8 8 8 8 9 9 10 11 11 12 13 13 14 14 14 15 16 18 20 21 22 24 26 28 29 30 32 33 35 36 37 38 38 39 40 40 40 39 38 37
23 24 24 25 26 27 28 29 30 30 29 28 27 26 23 20 16 14 13 13 12 13 14 14 14 14 14 12 11 10 10 9 9 9 9 8 7 6 6 5 5 5 5 6 7 8 10 10 10 10 10 9 10 10 11 12 13 13 14 15 15 16 17 17 18 19 21 23 25 26 27 29 29 31 33 34 36 38 39 39 39 39 39 39 39 38 38 37
26 26 27 27 28 29 29 29 29 28 27 27 26 23 20 16 14 13 13 13 13 14 15 14 14 14 13 12 10 10 10 9 9 9 9 8 7 7 8 8 7 6 6 7 8 9 10 11 11 12 12 11 12 12 13 14 14 15 15 16 17 18 19 20 21 22 24 26 27 28 29 31 32 34 35 36 37 38 39 39 39 40 39 39 38 37 37 37
27 27 28 28 29 29 29 28 27 27 26 24 22 20 17 15 13 13 13 14 14 15 15 14 14 13 12 11 10 10 10 9 9 9 9 9 9 9 10 10 9 9 8 8 9 9 10 11 12 12 13 13 14 14 15 16 17 17 18 19 20 21 22 23 24 25 27 28 30 32 32 33 35 36 37 37 38 38 39 40 40 41 40 39 38 37 36 36
28 28 29 29 29 28 27 26 25 24 23 21 19 17 16 14 13 14 14 15 15 15 15 14 12 11 11 11 11 11 11 10 10 10 11 11 11 11 12 11 11 11 11 11 11 11 11 11 12 13 13 14 15 16 18 19 20 21 21 22 23 24 25 26 27 28 29 30 32 35 36 36 36 37 38 38 39 39 40 40 41 41 40 40 39 38 37 36
28 28 28 27 27 26 25 24 23 21 20 19 18 17 15 15 15 15 15 15 15 15 14 13 12 11 11 11 12 12 13 12 11 11 12 13 13 13 12 12 13 13 13 13 13 13 13 13 14 15 15 16 17 18 20 21 23 23 24 25 26 27 28 29 30 31 32 32 33 35 37 38 38 38 39 39 39 40 40 40 40 40 40 39 39 38 37 37
26 26 26 25 24 23 22 22 21 20 19 18 17 16 16 16 16 16 15 15 14 14 13 12 11 11 11 11 12 13 14 13 13 13 14 14 14 14 14 14 14 14 14 14 15 15 15 16 17 17 18 19 20 21 22 22 23 24 25 27 28 29 30 31 32 33 34 35 35 36 38 38 38 39 40 40 40 40 40 40 39 39 39 39 38 38 38 38
24 23 23 22 22 21 21 20 19 18 17 17 17 16 16 16 16 15 15 14 14 13 13 12 12 12 12 12 13 14 15 15 15 15 15 15 15 15 15 15 15 15 16 16 16 16 17 17 19 20 21 21 22 23 23 23 24 25 26 28 30 31 31 32 33 34 35 36 36 36 38 38 36 38 41 41 41 40 39 40 41 40 39 39 39 39 39 39
21 20 20 20 19 19 18 17 17 16 16 15 16 15 15 15 15 14 14 14 14 13 13 13 13 13 14 14 14 15 16 16 16 16 16 16 16 16 16 16 16 17 17 17 18 18 18 19 20 21 22 23 23 24 25 25 26 27 28 30 33 34 34 34 33 33 33 35 36 35 37 38 35 34 38 41 42 42 41 41 42 43 42 42 41 41 41 41
18 17 17 17 16 16 15 14 14 14 14 14 14 14 14 14 14 15 15 15 14 14 13 13 14 14 15 15 16 17 18 18 18 17 18 18 17 17 17 17 17 18 18 19 19 19 20 21 21 22 23 24 26 26 27 28 29 30 31 32 34 35 35 34 33 32 31 33 35 34 36 39 37 34 36 38 40 42 43 43 43 44 44 44 44 44 45 45
15 15 15 14 14 13 13 12 12 12 13 13 14 14 15 15 15 16 16 15 15 14 14 14 15 16 17 17 18 18 19 20 20 19 19 19 19 18 18 18 19 19 20 21 21 22 22 22 23 24 25 26 28 29 29 30 32 33 34 34 33 34 34 34 34 33 32 33 36 37 37 40 41 38 38 39 38 40 42 43 43 44 45 44 44 45 46 47
14 14 13 13 13 13 13 13 13 13 14 14 15 15 16 16 17 17 17 17 16 16 16 16 17 18 19 19 20 20 21 21 21 21 21 21 20 20 20 20 21 21 22 22 23 24 24 24 26 27 28 29 30 31 32 33 35 36 36 35 34 33 34 35 35 36 35 35 37 39 39 41 42 40 41 42 42 43 45 46 45 46 46 45 45 46 47 48
15 15 14 14 14 14 14 14 14 14 14 15 15 16 16 17 17 18 18 18 18 18 18 18 19 19 20 21 21 22 23 23 23 23 23 22 22 22 22 22 22 23 24 24 25 26 26 27 28 30 31 31 32 33 34 35 37 39 39 37 35 34 35 36 37 38 38 38 39 40 41 43 43 42 43 44 44 45 48 50 50 50 49 49 49 49 50 51
16 16 17 17 17 17 16 16 16 16 16 16 17 17 17 18 18 19 19 19 20 20 20 20 20 21 21 22 23 23 24 25 24 25 25 24 24 24 24 24 25 25 26 27 28 28 28 29 30 32 34 34 33 34 35 37 39 40 41 40 38 37 37 38 38 39 40 41 42 42 43 45 46 44 44 46 46 47 48 50 53 53 52 52 53 53 55 56
19 20 20 20 19 19 19 19 19 19 19 19 19 20 20 20 21 21 22 22 22 22 22 22 22 22 23 23 24 25 26 26 26 27 27 26 26 26 26 27 27 28 29 29 30 31 31 32 32 34 36 37 36 35 36 38 40 42 43 43 41 40 40 41 41 41 41 42 44 45 45 47 48 47 46 47 49 50 50 52 54 55 55 56 57 57 58 58
23 23 23 23 23 23 23 22 22 22 22 22 23 23 23 24 24 24 25 25 25 25 25 25 25 25 25 25 26 27 28 28 28 29 29 28 29 29 29 30 30 31 32 32 33 34 33 34 35 35 37 40 40 38 38 39 41 44 45 46 45 43 43 44 44 44 44 44 45 46 47 49 49 49 49 50 52 53 54 55 56 57 59 59 58 58 59 60
27 27 27 27 27 27 27 27 26 26 26 26 26 26 27 27 28 28 28 28 28 28 28 28 28 28 28 27 28 29 29 30 30 31 31 31 32 32 32 33 33 34 35 35 36 37 37 37 38 37 38 41 43 41 41 41 43 46 48 48 47 45 45 46 47 48 48 48 47 48 49 50 49 50 51 52 54 56 57 56 57 60 61 60 59 59 61 61
Wind_Direction
184 184 184 186 189 191 192 189 189 191 195 202 204 207 210 212 214 215 218 220 224 229 232 234 238 243 246 247 248 249 250 251 254 257 260 263 265 268 272 274 277 281 283 285 287 289 290 292 293 295 296 298 300 302 304 305 307 307 307 307 306 306 306 306 307 309 309 310 312 315 319 324 329 332 333 333 333 333 332 333 336 338 341 344 346 349 351 352
185 186 186 186 187 191 195 196 198 197 199 203 204 207 209 209 212 214 215 217 220 224 227 230 234 238 242 244 247 250 251 253 257 260 264 266 269 272 275 278 280 283 285 287 288 290 291 293 295 296 298 300 302 304 305 306 306 306 306 306 305 305 306 307 308 309 310 312 316 321 326 332 335 336 336 336 335 335 337 341 346 350 353 356 359 0 1 1
188 187 187 188 189 192 194 198 203 205 206 208 209 210 210 210 212 214 216 218 221 222 225 228 231 236 243 245 247 252 255 257 260 264 267 270 273 275 278 281 283 284 286 288 289 291 293 295 296 298 300 302 303 305 305 306 305 305 305 304 304 305 307 308 309 311 314 319 324 330 335 338 338 339 339 339 339 343 349 355 0 4 5 6 7 7 7 8
189 189 190 193 195 197 197 197 203 207 208 210 212 215 216 216 217 218 221 224 226 227 230 235 237 241 248 252 253 257 260 261 263 267 271 273 276 279 282 283 285 286 287 289 291 292 294 296 298 299 301 303 304 305 305 304 304 304 303 304 305 307 309 310 313 318 323 329 334 339 340 341 341 341 342 344 349 356 4 8 11 12 12 11 11 12 12 12
189 188 192 195 196 199 200 199 201 206 209 211 213 216 218 220 223 225 227 229 232 235 238 242 244 248 253 256 258 260 263 266 267 271 273 276 279 281 284 285 286 287 288 290 292 293 295 297 299 300 302 303 304 304 303 303 303 302 303 304 307 310 313 317 323 328 333 338 341 342 342 343 343 345 350 355 2 10 14 16 17 17 17 16 16 16 16 15
187 187 191 194 194 196 200 201 202 205 209 212 214 216 218 220 224 228 229 231 236 239 241 245 247 252 257 259 262 263 266 269 271 274 275 278 280 282 284 286 287 288 290 291 293 295 296 298 300 301 302 303 303 302 302 302 301 301 302 306 311 316 322 327 332 336 340 343 344 344 345 346 349 356 4 11 17 19 21 21 22 21 21 21 20 19 18 17
189 189 190 193 195 196 198 201 203 206 208 211 213 216 218 221 224 228 230 232 236 239 242 245 247 252 258 261 264 266 269 272 274 276 277 279 281 282 284 286 287 289 291 292 294 296 297 299 300 301 301 301 301 300 300 299 299 301 304 311 318 326 332 336 339 342 344 345 345 347 348 352 2 14 21 24 25 24 24 25 24 23 23 23 22 21 20 18
193 193 193 194 197 198 201 203 206 209 211 212 214 216 220 223 225 227 229 231 235 240 242 246 248 252 257 262 265 269 272 274 276 277 279 280 281 283 285 286 288 290 292 294 295 297 298 300 300 300 300 300 299 298 297 296 298 303 310 321 329 336 340 343 344 344 345 346 350 353 358 9 21 28 30 29 27 26 26 26 25 25 24 23 23 22 21 19
196 197 197 198 200 202 205 207 210 213 215 217 217 219 223 227 229 229 231 232 236 241 244 247 251 254 258 262 266 270 273 274 276 278 279 281 282 283 285 287 289 291 293 295 296 298 299 299 298 299 299 298 297 295 294 295 301 310 321 333 340 345 346 346 345 345 348 353 360 7 19 30 34 34 32 30 28 27 27 26 26 25 24 24 24 22 20 19
198 200 201 202 204 206 208 211 214 217 219 221 223 224 226 229 231 232 233 235 239 243 247 251 255 258 260 263 267 270 273 274 276 278 280 281 283 284 286 288 290 292 294 296 297 297 297 297 297 297 297 294 292 290 291 298 309 322 335 345 349 349 347 346 347 351 358 6 19 30 38 40 39 35 32 30 29 28 27 27 26 25 24 25 24 22 20 20
199 201 204 206 208 210 213 214 217 219 219 220 222 224 225 227 230 234 236 239 243 247 250 254 258 261 263 265 268 271 273 274 276 278 280 282 284 285 287 289 291 293 294 295 295 295 295 296 296 295 292 289 286 286 292 306 321 336 348 352 351 349 348 351 357 5 16 29 39 44 44 42 38 34 31 29 28 27 27 27 25 24 25 25 24 22 21 21
200 202 204 207 209 212 214 216 218 220 219 219 221 223 226 231 235 238 241 243 246 249 252 255 259 261 263 265 268 270 272 274 276 278 281 283 284 286 289 291 292 293 293 293 293 293 294 293 292 290 287 283 282 288 301 320 339 352 356 353 350 350 355 4 15 29 40 46 47 46 44 38 34 30 29 28 27 27 27 26 25 24 25 25 24 23 21 22
197 201 204 206 208 210 212 214 217 219 221 221 224 228 232 236 240 241 243 245 247 250 253 255 258 260 261 264 266 269 271 274 277 279 281 283 285 288 290 291 291 291 290 291 291 291 290 288 286 283 279 278 283 297 319 343 356 358 356 352 352 357 9 24 39 48 51 50 48 43 38 33 30 29 29 29 29 28 28 26 25 25 26 25 25 23 22 22
187 192 197 202 206 209 211 214 217 221 223 225 228 231 233 235 237 238 240 243 246 249 252 254 256 259 260 262 266 269 272 274 277 279 282 284 286 288 289 289 289 288 288 287 286 285 284 282 278 273 274 280 294 321 350 1 1 357 354 353 360 14 32 46 52 53 52 49 43 37 33 32 32 31 31 31 31 30 29 27 26 26 26 25 25 23 23 23
173 178 184 191 199 204 208 212 215 217 219 221 223 225 226 228 230 233 237 240 244 247 250 252 255 258 260 263 266 269 272 275 277 280 283 285 287 287 287 286 285 284 282 281 279 278 276 270 265 267 278 294 324 359 7 4 1 357 355 2 22 42 52 56 56 54 49 42 36 35 36 36 35 34 33 33 32 31 30 29 29 28 26 25 24 23 23 22
160 165 170 176 181 187 193 198 201 203 205 206 210 215 219 223 226 230 235 239 243 246 249 252 255 258 260 263 266 269 272 276 279 282 284 285 285 284 282 280 278 275 274 272 270 267 260 257 261 273 294 325 2 13 8 4 1 358 4 28 52 60 62 61 58 51 42 35 35 39 39 38 36 35 35 34 34 33 32 31 30 28 27 25 24 23 23 22
160 163 167 171 173 177 182 188 192 196 199 203 207 212 216 220 225 229 233 238 241 245 248 252 255 258 261 264 267 271 275 279 281 282 283 282 279 276 273 269 266 264 263 261 256 252 252 257 267 287 331 2 14 11 7 5 2 5 32 59 66 66 65 61 53 42 34 33 38 41 40 39 38 36 36 35 35 34 33 32 31 29 27 26 25 24 24 23
174 172 173 175 178 181 185 189 193 196 200 204 208 212 215 220 224 228 233 236 239 243 247 252 256 260 263 267 271 275 278 280 280 278 276 273 269 264 258 254 253 252 251 250 246 247 252 261 276 338 5 11 12 9 9 6 7 32 65 73 71 68 62 54 44 34 30 34 40 41 39 38 38 37 36 36 35 35 34 33 32 30 29 28 27 26 25 24
174 174 176 178 180 182 186 189 192 196 200 204 208 212 215 219 223 228 232 234 239 244 250 255 259 263 266 270 274 276 276 274 272 269 264 259 252 246 241 240 241 243 245 243 242 243 248 266 339 9 6 8 9 10 11 9 27 65 77 75 70 64 54 45 35 29 31 38 41 40 38 37 37 37 36 36 35 34 34 33 32 31 31 30 29 28 27 25
172 176 179 182 185 187 190 193 196 200 203 208 212 214 217 221 225 229 233 237 243 249 253 257 260 263 266 269 270 270 267 263 259 252 244 236 231 229 229 232 235 237 236 231 226 222 244 339 9 3 358 2 5 10 14 21 60 78 77 72 64 54 46 37 29 29 35 40 40 39 37 36 36 36 35 35 34 33 33 32 32 32 32 31 30 29 28 26
181 185 186 188 192 194 196 198 202 206 210 214 217 219 221 224 228 232 237 242 246 251 254 256 259 262 264 265 262 259 253 245 236 227 220 218 218 218 218 219 220 218 212 204 194 195 358 8 1 349 347 354 359 10 21 38 75 78 71 66 55 46 38 31 27 29 36 39 38 37 35 34 33 33 33 33 33 32 31 31 31 31 32 31 31 30 29 27
188 187 189 195 200 202 204 205 207 212 216 219 221 223 225 228 231 236 240 243 248 254 256 257 259 260 259 254 248 239 227 216 210 208 208 208 207 204 200 198 198 192 182 176 166 3 1 358 343 335 337 342 350 13 30 47 75 72 65 59 47 38 31 27 27 31 36 37 36 35 33 32 31 30 30 30 30 30 30 30 29 30 30 30 30 30 29 27
188 190 198 203 205 206 208 210 213 216 219 222 225 226 227 229 233 238 245 252 260 262 260 258 256 251 243 232 220 208 200 195 197 199 199 196 192 189 186 185 181 168 152 136 9 354 349 341 329 326 326 333 345 16 33 43 65 64 57 52 40 31 26 24 27 32 36 36 34 33 31 29 29 28 27 27 27 27 27 27 27 28 28 29 29 29 28 26
195 204 214 212 206 205 208 211 214 217 221 225 227 226 227 231 242 255 266 276 275 265 256 249 239 226 212 199 191 189 189 189 188 187 185 184 183 183 179 173 165 144 125 340 349 338 331 331 325 322 323 333 353 21 29 36 50 52 47 42 32 25 22 22 26 32 35 34 33 31 29 27 26 26 25 24 23 23 23 24 24 24 24 25 27 28 27 25
211 220 224 221 219 219 220 223 227 234 239 242 243 241 243 255 272 283 287 286 272 252 237 223 207 194 186 181 179 182 184 180 177 177 176 177 178 178 173 170 187 189 244 315 326 321 326 332 326 324 330 342 6 18 25 32 36 37 36 30 23 19 18 20 24 31 34 32 30 28 26 24 23 23 23 22 20 18 18 19 20 20 20 21 22 24 24 23
222 228 231 232 235 237 239 242 247 254 258 264 267 268 272 280 287 291 288 274 248 221 204 191 182 176 174 173 174 174 174 173 172 173 174 176 179 181 187 203 223 223 244 283 303 319 332 336 332 334 345 353 2 10 17 24 26 31 30 21 15 13 13 16 22 28 30 28 25 23 22 20 20 21 21 21 19 16 15 14 15 16 16 17 18 19 20 20
231 234 237 241 243 246 249 252 256 261 266 271 274 277 278 282 288 287 273 240 205 189 180 173 171 171 169 168 167 167 167 168 171 175 179 185 187 195 204 213 220 231 251 275 307 331 339 341 338 341 346 347 350 353 358 8 18 24 22 14 11 10 10 13 21 25 24 21 18 17 17 16 16 17 18 18 17 15 13 12 11 10 11 12 13 14 16 16
241 242 243 246 248 251 253 255 259 262 266 271 274 276 277 282 286 271 227 191 178 171 166 166 168 166 164 161 162 163 164 169 177 184 188 189 192 199 204 211 222 243 264 283 319 334 341 343 341 338 338 341 343 342 344 356 10 14 11 8 9 9 8 12 20 20 15 12 11 10 10 10 10 11 12 12 12 11 10 10 9 7 7 7 8 9 11 12
245 246 248 249 251 253 255 257 260 263 266 269 272 273 276 281 270 220 180 169 166 162 162 165 165 161 159 159 161 164 169 176 184 189 190 192 195 198 201 213 236 261 270 281 309 329 340 341 339 337 337 341 344 344 347 356 5 9 9 8 7 7 10 14 19 14 8 5 4 3 4 4 4 4 5 5 4 5 5 6 6 5 4 3 3 4 6 8
247 249 251 252 254 255 257 259 260 263 266 268 269 271 274 262 212 175 163 160 160 160 163 163 161 158 159 162 165 169 175 183 188 190 192 196 197 199 205 227 257 267 266 273 301 331 340 337 334 335 336 340 347 350 354 1 6 8 9 7 6 8 12 15 13 6 1 359 358 359 358 358 358 358 359 359 359 359 360 0 0 1 1 1 360 360 1 4
249 251 252 253 255 256 257 259 260 263 265 266 267 265 247 201 171 160 156 157 159 162 163 160 160 161 163 168 170 173 180 185 191 194 197 201 202 204 215 243 263 265 263 274 308 336 336 328 323 323 326 333 343 347 350 355 360 2 2 2 4 9 13 11 4 358 355 354 352 352 352 353 353 353 353 354 355 355 356 356 356 356 356 357 357 356 357 359
250 252 253 254 254 255 256 257 258 260 260 257 248 220 186 167 159 156 156 158 161 162 163 162 163 166 169 172 174 177 183 188 194 197 200 203 204 211 228 251 267 271 273 287 315 328 321 314 311 311 312 319 330 336 337 341 346 350 353 355 359 3 4 1 356 351 349 348 346 346 346 347 348 349 350 351 353 355 355 355 354 353 353 353 353 353 353 354
249 249 250 250 250 251 251 250 249 245 236 217 192 174 164 158 156 157 158 159 161 163 165 168 169 171 174 176 179 184 189 193 196 200 203 204 207 218 237 256 276 291 297 299 309 311 304 299 302 306 303 302 312 319 321 326 331 335 340 344 347 350 350 348 345 343 342 341 341 340 340 342 344 345 347 349 351 353 354 354 354 353 352 350 350 350 349 349
240 239 239 238 237 234 230 224 214 200 184 173 165 160 156 156 157 158 159 160 163 166 170 173 174 175 178 182 188 193 197 199 200 202 204 206 212 224 240 259 282 300 301 299 301 299 294 293 299 301 298 294 298 304 307 311 315 320 325 330 332 331 330 332 334 336 336 335 335 334 335 337 338 339 341 343 346 348 349 350 351 350 350 349 347 347 346 345
218 215 212 206 200 193 185 179 172 167 163 159 157 156 156 157 159 160 160 161 166 171 175 178 179 181 185 189 195 199 202 204 205 207 207 209 218 230 240 252 270 286 292 299 301 297 291 290 291 293 291 291 296 300 301 301 304 309 313 317 321 320 318 321 325 327 328 329 328 329 330 331 333 334 335 336 339 341 342 343 343 343 344 345 345 344 343 342
179 175 172 168 164 162 161 160 159 157 156 155 156 158 159 159 160 161 163 166 172 177 180 184 186 188 192 195 200 204 206 209 211 212 211 215 226 236 242 248 262 276 286 294 296 294 290 286 286 288 289 291 294 297 297 297 299 303 307 311 315 315 315 315 316 318 320 321 322 323 324 326 328 329 329 331 332 334 335 336 337 337 338 339 341 341 341 339
152 151 152 152 153 154 155 155 154 155 156 157 159 161 161 161 162 165 170 175 181 185 188 190 192 194 197 200 205 208 210 213 216 217 217 222 236 247 248 251 259 269 278 284 287 289 288 288 289 292 294 296 296 295 295 296 297 300 304 307 310 312 314 313 313 313 314 315 316 318 319 321 323 324 324 326 327 328 329 331 333 334 335 336 337 338 338 337
145 146 148 150 152 153 154 155 156 158 160 162 163 163 164 165 167 173 179 184 190 193 194 195 196 197 200 206 210 213 216 218 222 224 224 231 246 254 251 251 256 267 274 276 278 280 283 287 291 294 297 298 298 298 299 299 300 301 303 305 307 309 310 310 311 310 311 312 312 313 315 316 317 319 319 320 322 324 326 328 330 332 333 333 334 335 336 335
146 148 150 151 153 154 156 158 160 162 164 165 166 168 171 174 177 184 187 190 195 197 197 197 198 201 207 213 219 221 222 224 229 231 231 238 248 253 252 253 260 270 275 273 272 274 278 283 287 292 296 299 301 303 304 305 305 307 308 308 309 309 308 308 309 309 310 310 310 310 311 312 313 315 316 318 320 323 325 327 328 329 330 331 332 332 333 333
149 151 153 154 156 157 160 162 164 166 168 170 173 178 181 184 187 190 192 194 197 199 199 200 202 208 215 222 227 228 226 227 232 234 235 240 247 252 254 257 263 271 276 276 275 276 278 282 285 290 295 300 305 306 307 308 309 310 311 311 311 311 310 309 309 309 309 308 308 309 310 311 312 314 316 318 320 322 324 325 326 326 327 328 329 329 330 330
152 154 155 157 159 161 164 166 169 171 175 178 182 185 189 191 192 193 193 196 199 202 204 207 212 218 225 229 231 230 227 228 233 236 238 242 247 254 257 261 265 270 275 277 276 276 279 282 287 292 297 302 305 306 307 308 309 311 311 311 312 311 311 310 310 309 309 308 308 308 309 311 313 315 317 319 322 323 324 325 326 327 328 328 328 328 327 327
155 157 159 161 164 167 170 173 175 178 180 183 185 188 190 192 193 194 196 200 204 209 214 218 224 231 236 238 236 232 229 230 235 239 242 245 250 256 260 263 266 269 273 275 276 278 281 285 290 295 300 304 305 307 308 309 310 312 313 314 314 314 313 312 311 311 310 310 310 310 311 312 317 321 321 323 325 325 326 327 328 329 329 330 330 329 328 327
159 161 163 165 168 170 172 175 176 179 181 184 187 190 192 193 195 198 202 207 213 219 225 231 237 243 247 247 243 237 233 234 239 243 246 249 253 258 262 265 267 269 272 274 277 280 284 288 293 298 301 304 305 306 308 311 313 314 315 316 316 316 316 314 312 312 312 312 314 316 315 316 322 327 326 325 326 326 327 329 329 328 329 330 331 330 329 328
161 163 165 167 169 171 173 175 178 181 185 189 192 195 197 199 202 206 211 216 222 229 235 241 247 251 253 253 249 243 239 239 242 247 250 253 256 260 263 266 269 271 274 277 279 283 286 290 294 298 299 300 301 304 308 311 312 314 315 316 317 317 317 316 316 316 317 318 319 322 322 320 327 333 329 327 328 328 329 331 331 331 330 332 333 332 330 328
166 167 169 171 172 174 176 180 184 189 194 198 201 204 207 210 213 216 220 225 230 236 243 249 254 258 259 258 254 248 244 243 246 250 254 257 260 262 265 268 271 274 276 279 281 284 288 291 293 294 295 296 298 302 306 308 310 311 314 316 317 317 318 319 320 321 324 324 323 327 328 323 328 335 329 327 330 330 330 332 333 332 333 335 336 334 331 328
174 175 176 178 180 183 188 193 199 204 209 213 215 217 219 221 222 224 227 232 237 243 251 257 261 263 263 260 257 252 248 247 250 253 257 260 263 265 268 271 274 276 278 280 283 286 289 290 290 290 291 294 298 301 305 307 308 309 312 315 315 315 316 318 320 322 326 327 324 327 329 324 326 331 326 325 329 329 329 331 332 332 333 336 338 334 330 328
186 187 189 191 195 198 203 209 213 217 221 224 226 228 229 230 231 232 235 239 244 249 255 260 264 266 265 263 259 254 250 250 252 256 260 262 264 267 270 273 275 277 280 283 285 288 289 291 291 291 292 295 298 302 304 306 307 307 310 312 313 313 314 316 319 322 324 325 322 324 325 321 323 326 323 322 326 327 327 328 329 329 331 334 335 332 328 327
200 201 203 206 210 213 216 220 224 228 231 233 235 235 236 237 238 239 242 245 250 254 258 262 265 266 266 264 260 256 253 252 254 258 261 263 265 268 271 274 276 278 281 284 286 289 291 293 294 294 295 297 300 302 304 305 306 306 307 310 311 311 312 314 317 319 321 320 319 320 320 318 320 323 320 320 324 325 325 326 326 328 330 332 332 329 326 325
213 214 216 218 221 223 226 230 234 238 240 242 243 243 243 244 245 246 248 251 254 256 259 262 265 266 266 264 261 258 255 255 257 259 261 263 265 268 270 273 275 278 281 283 286 289 292 294 295 296 296 298 299 301 303 305 305 304 304 307 309 309 310 310 312 314 317 317 317 318 317 315 318 320 319 318 321 323 323 324 325 327 330 332 332 330 327 325
222 224 225 227 229 231 233 236 240 243 246 247 248 249 249 249 250 251 253 255 257 259 261 264 267 268 268 266 262 259 257 257 259 260 262 264 265 268 270 272 275 278 280 283 285 288 290 293 295 296 297 297 299 300 301 303 304 302 301 303 305 305 307 307 307 309 312 314 315 316 315 314 316 318 318 317 319 321 323 323 323 325 329 331 330 329 328 327
229 230 231 232 234 235 237 239 242 244 247 249 250 251 252 252 253 254 256 257 260 262 264 266 269 270 270 269 265 262 260 260 260 262 263 265 267 269 271 273 276 278 280 282 285 287 290 292 294 296 297 297 298 300 300 302 302 300 300 301 301 302 304 305 305 305 307 311 312 312 312 313 314 316 316 316 318 320 321 321 321 324 327 328 327 326 326 325
234 235 235 236 237 238 239 240 242 245 247 249 250 251 253 253 254 256 257 259 261 263 265 267 269 270 271 271 269 266 264 263 263 263 264 266 267 270 272 274 276 278 280 282 284 286 289 290 292 294 295 295 297 299 300 302 300 298 298 299 298 298 300 302 303 302 304 308 310 309 310 311 312 313 313 314 317 319 319 317 318 322 325 325 324 323 323 323
Height
10743 10747 10752 10757 10761 10767 10771 10776 10781 10785 10787 10790 10792 10795 10798 10802 10804 10807 10809 10811 10812 10814 10815 10817 10818 10819 10820 10820 10821 10821 10821 10821 10821 10821 10821 10821 10821 10821 10820 10820 10819 10818 10817 10815 10814 10813 10812 10812 10811 10810 10809 10808 10806 10805 10803 10800 10798 10796 10793 10790 10786 10782 10779 10775 10773 10770 10768 10766 10764 10763 10761 10759 10756 10753 10749 10745 10741 10738 10734 10730 10726 10722 10718 10714 10710 10706 10702 10698
10744 10748 10752 10758 10763 10768 10773 10777 10780 10783 10786 10788 10791 10794 10797 10800 10803 10806 10808 10810 10811 10812 10814 10815 10816 10817 10818 10818 10818 10819 10819 10819 10819 10819 10818 10818 10819 10818 10818 10817 10817 10815 10814 10813 10812 10811 10810 10810 10809 10808 10807 10805 10804 10802 10800 10797 10795 10792 10789 10785 10782 10779 10776 10773 10771 10769 10767 10766 10764 10762 10760 10758 10755 10751 10747 10743 10739 10736 10732 10728 10724 10720 10717 10713 10709 10706 10702 10698
10744 10749 10755 10760 10765 10769 10773 10776 10779 10782 10785 10787 10790 10793 10796 10799 10802 10804 10806 10808 10809 10811 10812 10813 10814 10815 10815 10815 10816 10816 10816 10816 10816 10816 10816 10816 10816 10815 10815 10815 10814 10812 10811 10810 10810 10809 10809 10808 10807 10806 10804 10803 10801 10799 10797 10794 10791 10788 10785 10782 10779 10776 10774 10772 10770 10768 10767 10765 10763 10761 10759 10756 10753 10749 10745 10741 10738 10734 10730 10726 10723 10720 10716 10713 10710 10706 10703 10698
10745 10750 10756 10760 10764 10768 10772 10775 10778 10781 10784 10787 10790 10792 10795 10799 10801 10803 10805 10806 10807 10809 10810 10811 10811 10812 10812 10813 10813 10813 10813 10813 10813 10813 10813 10813 10813 10813 10813 10812 10811 10809 10809 10808 10808 10807 10806 10805 10804 10803 10802 10800 10798 10796 10794 10791 10788 10785 10782 10779 10777 10775 10773 10771 10769 10768 10766 10764 10762 10759 10756 10753 10750 10746 10743 10740 10736 10733 10729 10726 10723 10720 10717 10714 10710 10707 10702 10698
10745 10750 10755 10759 10763 10766 10770 10774 10777 10780 10783 10786 10789 10791 10794 10797 10800 10802 10803 10805 10806 10807 10808 10808 10809 10810 10810 10810 10810 10810 10810 10810 10811 10811 10811 10811 10810 10810 10810 10809 10808 10807 10806 10806 10806 10805 10804 10803 10802 10801 10799 10798 10795 10793 10790 10787 10784 10782 10779 10777 10775 10773 10772 10770 10769 10767 10765 10763 10760 10757 10754 10751 10748 10745 10742 10739 10736 10733 10730 10727 10724 10721 10718 10714 10711 10706 10702 10697
10746 10750 10754 10759 10762 10766 10769 10773 10776 10779 10782 10785 10787 10790 10793 10796 10798 10800 10802 10804 10805 10805 10806 10806 10807 10807 10807 10808 10808 10808 10808 10808 10808 10808 10808 10808 10808 10807 10806 10806 10805 10805 10805 10805 10804 10803 10802 10801 10800 10798 10796 10795 10792 10789 10787 10784 10782 10780 10778 10776 10774 10773 10771 10770 10768 10766 10764 10761 10758 10755 10753 10750 10747 10744 10742 10739 10737 10734 10731 10728 10725 10722 10718 10714 10710 10706 10701 10696
10745 10749 10754 10758 10762 10765 10768 10771 10774 10778 10780 10783 10786 10789 10793 10795 10798 10800 10801 10803 10803 10803 10804 10804 10805 10805 10805 10806 10806 10806 10806 10806 10806 10806 10806 10806 10805 10805 10804 10804 10804 10803 10803 10803 10802 10801 10800 10799 10797 10796 10794 10791 10789 10786 10784 10782 10780 10778 10777 10775 10774 10772 10771 10769 10767 10765 10762 10759 10757 10754 10752 10749 10747 10744 10742 10740 10738 10735 10732 10728 10725 10721 10717 10714 10709 10705 10700 10696
10745 10749 10754 10758 10761 10764 10766 10770 10773 10776 10779 10783 10786 10790 10793 10795 10797 10799 10800 10801 10802 10802 10802 10803 10803 10803 10803 10804 10804 10804 10804 10804 10804 10804 10803 10803 10803 10802 10802 10802 10802 10802 10801 10801 10800 10799 10798 10797 10795 10793 10791 10789 10787 10784 10783 10781 10779 10778 10776 10775 10773 10772 10770 10768 10766 10763 10760 10758 10756 10753 10751 10749 10747 10745 10743 10741 10738 10735 10731 10728 10724 10721 10717 10713 10709 10704 10700 10696
10745 10749 10753 10757 10761 10764 10766 10770 10773 10776 10780 10784 10787 10791 10793 10795 10796 10797 10798 10799 10800 10800 10801 10801 10802 10802 10802 10802 10802 10802 10802 10802 10802 10801 10801 10801 10801 10801 10801 10800 10800 10800 10799 10799 10798 10797 10795 10794 10792 10790 10788 10786 10785 10783 10781 10780 10778 10777 10776 10774 10773 10771 10769 10767 10764 10762 10759 10757 10755 10753 10752 10750 10747 10746 10743 10741 10738 10735 10731 10727 10724 10720 10717 10712 10708 10704 10701 10697
10745 10749 10753 10757 10761 10764 10767 10770 10774 10777 10782 10785 10788 10791 10792 10793 10794 10795 10797 10798 10798 10799 10799 10800 10800 10800 10800 10800 10800 10800 10800 10800 10799 10799 10799 10799 10799 10799 10799 10799 10799 10798 10797 10796 10795 10794 10792 10791 10789 10787 10786 10785 10783 10782 10781 10779 10778 10776 10775 10773 10772 10770 10768 10766 10764 10761 10759 10757 10755 10754 10752 10750 10748 10746 10744 10741 10738 10734 10731 10727 10723 10720 10716 10712 10708 10705 10702 10698
10747 10751 10754 10758 10762 10765 10768 10772 10775 10778 10782 10785 10787 10789 10791 10792 10793 10794 10795 10796 10796 10797 10797 10798 10798 10798 10798 10798 10798 10798 10797 10797 10797 10797 10797 10797 10797 10798 10798 10797 10797 10796 10795 10794 10792 10791 10789 10788 10786 10785 10785 10784 10782 10781 10780 10778 10777 10776 10774 10772 10771 10769 10767 10765 10763 10761 10759 10758 10756 10755 10753 10751 10749 10746 10744 10740 10737 10734 10730 10726 10723 10720 10716 10712 10709 10706 10703 10699
10748 10752 10756 10760 10763 10766 10769 10772 10775 10778 10781 10784 10786 10788 10789 10790 10791 10792 10793 10794 10794 10795 10795 10796 10796 10795 10796 10796 10796 10795 10795 10795 10795 10795 10796 10796 10796 10796 10796 10796 10795 10794 10792 10791 10789 10788 10787 10786 10785 10784 10784 10783 10782 10780 10779 10778 10776 10775 10773 10772 10770 10769 10767 10765 10763 10761 10760 10759 10757 10755 10753 10751 10749 10746 10743 10740 10736 10733 10729 10726 10723 10720 10716 10712 10710 10707 10704 10699
10748 10752 10757 10760 10764 10767 10769 10772 10775 10777 10780 10782 10785 10786 10788 10789 10789 10790 10791 10791 10792 10792 10793 10793 10793 10794 10794 10793 10793 10793 10793 10793 10793 10794 10794 10794 10795 10795 10794 10793 10792 10791 10789 10788 10787 10786 10785 10784 10784 10784 10783 10782 10781 10780 10778 10777 10776 10774 10772 10771 10770 10768 10766 10765 10764 10762 10761 10759 10757 10755 10753 10751 10749 10746 10742 10739 10736 10732 10729 10726 10723 10720 10716 10713 10711 10708 10704 10699
10748 10752 10757 10760 10764 10767 10769 10772 10774 10777 10779 10782 10784 10785 10786 10787 10787 10788 10788 10788 10789 10790 10791 10791 10791 10791 10791 10791 10791 10791 10791 10792 10792 10793 10793 10793 10793 10792 10792 10790 10789 10787 10786 10785 10785 10784 10784 10784 10783 10783 10782 10781 10780 10779 10778 10776 10775 10773 10772 10771 10770 10768 10767 10765 10764 10763 10761 10760 10758 10756 10753 10751 10748 10745 10742 10738 10735 10732 10729 10727 10724 10720 10717 10714 10711 10708 10704 10700
10748 10752 10756 10760 10763 10766 10769 10771 10774 10776 10779 10781 10782 10783 10783 10784 10785 10785 10786 10786 10787 10788 10789 10789 10789 10789 10789 10789 10789 10789 10790 10790 10791 10792 10792 10792 10791 10790 10788 10787 10786 10785 10784 10784 10783 10783 10783 10783 10783 10782 10781 10781 10779 10778 10777 10776 10774 10773 10772 10771 10770 10769 10767 10766 10765 10763 10762 10760 10758 10756 10753 10750 10747 10744 10741 10738 10735 10732 10730 10727 10724 10721 10717 10714 10712 10709 10705 10701
10749 10752 10756 10759 10763 10766 10768 10771 10773 10775 10777 10778 10779 10780 10781 10782 10783 10783 10784 10784 10785 10786 10786 10786 10787 10787 10787 10787 10787 10788 10789 10789 10790 10790 10790 10789 10788 10787 10785 10784 10784 10783 10783 10783 10783 10783 10783 10782 10782 10781 10781 10780 10779 10777 10776 10775 10774 10774 10773 10772 10771 10769 10768 10767 10766 10764 10763 10760 10758 10756 10753 10750 10747 10744 10741 10738 10735 10733 10730 10728 10724 10721 10718 10716 10713 10710 10706 10702
10751 10754 10756 10759 10762 10765 10768 10770 10771 10773 10774 10776 10777 10778 10779 10780 10781 10782 10782 10783 10783 10784 10784 10785 10785 10785 10785 10785 10786 10787 10788 10788 10788 10788 10787 10786 10785 10784 10783 10783 10782 10782 10782 10782 10782 10782 10782 10782 10781 10781 10780 10779 10778 10777 10776 10776 10775 10774 10773 10772 10771 10770 10769 10767 10766 10765 10763 10760 10758 10755 10753 10750 10747 10744 10742 10739 10736 10734 10731 10728 10725 10722 10720 10717 10714 10711 10707 10704
10751 10753 10756 10758 10761 10763 10766 10767 10769 10771 10772 10774 10775 10776 10777 10779 10779 10780 10781 10781 10782 10782 10783 10783 10783 10783 10784 10784 10785 10786 10786 10786 10786 10785 10784 10784 10783 10782 10782 10782 10782 10782 10782 10782 10782 10782 10782 10781 10781 10780 10779 10778 10777 10777 10777 10776 10776 10775 10774 10773 10771 10770 10769 10768 10766 10765 10762 10760 10758 10755 10753 10750 10748 10745 10742 10740 10737 10735 10732 10729 10727 10724 10721 10719 10715 10712 10708 10705
10750 10752 10754 10757 10759 10762 10764 10765 10767 10769 10770 10772 10773 10775 10776 10777 10778 10779 10780 10780 10781 10781 10782 10782 10782 10782 10782 10783 10784 10784 10784 10784 10783 10782 10782 10782 10781 10781 10781 10781 10781 10782 10782 10782 10782 10782 10781 10781 10780 10778 10778 10778 10777 10777 10777 10777 10776 10775 10774 10773 10772 10771 10769 10768 10766 10764 10762 10760 10757 10755 10753 10751 10748 10746 10744 10741 10739 10736 10733 10731 10728 10725 10723 10720 10716 10713 10710 10707
10749 10751 10754 10756 10758 10760 10762 10764 10765 10767 10769 10770 10772 10773 10775 10776 10777 10778 10778 10779 10780 10780 10780 10780 10780 10780 10781 10781 10782 10782 10781 10781 10780 10780 10780 10780 10780 10781 10781 10781 10781 10781 10781 10781 10781 10781 10781 10780 10778 10778 10777 10777 10778 10778 10778 10777 10776 10775 10774 10773 10772 10771 10769 10768 10766 10764 10761 10759 10757 10755 10753 10751 10749 10747 10745 10742 10740 10737 10735 10732 10729 10727 10724 10720 10717 10714 10711 10708
10748 10750 10753 10755 10757 10759 10761 10763 10764 10766 10768 10769 10771 10772 10773 10774 10775 10776 10777 10778 10778 10778 10778 10778 10778 10778 10779 10779 10779 10779 10779 10779 10779 10779 10779 10779 10780 10780 10780 10781 10781 10781 10781 10781 10781 10780 10780 10779 10778 10777 10777 10777 10778 10779 10779 10778 10776 10775 10774 10773 10772 10770 10769 10767 10765 10763 10761 10759 10757 10755 10754 10752 10750 10748 10746 10743 10741 10738 10736 10733 10730 10727 10725 10721 10718 10715 10712 10709
10748 10750 10752 10755 10757 10758 10760 10762 10764 10765 10767 10768 10769 10770 10772 10773 10774 10775 10776 10776 10776 10775 10775 10775 10776 10776 10776 10776 10776 10777 10777 10777 10778 10778 10778 10779 10779 10780 10780 10780 10781 10781 10780 10780 10780 10779 10779 10778 10777 10777 10777 10778 10779 10779 10779 10777 10776 10775 10774 10773 10772 10770 10769 10767 10765 10763 10761 10759 10758 10756 10754 10752 10750 10748 10746 10744 10741 10739 10736 10734 10731 10728 10725 10723 10719 10716 10713 10710
10748 10750 10753 10755 10756 10758 10759 10761 10763 10764 10765 10767 10768 10769 10770 10771 10773 10773 10773 10773 10773 10773 10773 10773 10773 10774 10774 10774 10775 10775 10776 10777 10777 10778 10778 10779 10779 10780 10780 10780 10780 10780 10780 10780 10779 10779 10778 10778 10777 10777 10777 10778 10778 10779 10778 10777 10776 10775 10773 10772 10771 10770 10769 10767 10765 10763 10761 10760 10758 10756 10754 10753 10751 10749 10746 10744 10742 10739 10737 10734 10732 10729 10726 10724 10720 10717 10714 10711
10748 10750 10752 10754 10755 10757 10759 10760 10761 10763 10764 10765 10766 10768 10769 10770 10770 10770 10770 10770 10770 10770 10770 10771 10771 10772 10772 10773 10774 10775 10776 10776 10777 10777 10778 10778 10779 10779 10779 10780 10779 10779 10779 10779 10779 10778 10778 10778 10777 10777 10777 10777 10778 10778 10778 10777 10775 10774 10773 10772 10771 10770 10768 10767 10765 10764 10762 10760 10758 10757 10755 10753 10751 10749 10747 10744 10742 10740 10737 10735 10732 10729 10727 10724 10721 10718 10715 10712
10748 10750 10751 10753 10754 10756 10757 10758 10760 10761 10762 10763 10764 10765 10766 10767 10767 10767 10767 10768 10768 10768 10769 10769 10770 10771 10772 10773 10774 10774 10775 10776 10776 10777 10777 10778 10778 10779 10779 10779 10779 10779 10779 10779 10778 10778 10778 10777 10777 10777 10777 10777 10777 10777 10777 10776 10775 10774 10773 10772 10771 10770 10768 10767 10766 10764 10762 10760 10759 10757 10755 10754 10752 10750 10747 10745 10742 10740 10738 10735 10732 10730 10727 10724 10721 10719 10716 10713
10747 10748 10749 10751 10752 10754 10755 10756 10758 10759 10760 10761 10762 10763 10764 10764 10765 10765 10765 10766 10766 10767 10767 10768 10769 10770 10771 10772 10773 10774 10775 10775 10776 10776 10777 10777 10778 10778 10778 10779 10779 10779 10778 10778 10778 10778 10778 10777 10777 10777 10777 10777 10777 10776 10776 10775 10775 10773 10772 10772 10770 10769 10768 10767 10765 10764 10762 10760 10759 10757 10756 10754 10752 10750 10748 10745 10743 10740 10738 10735 10733 10730 10728 10725 10722 10720 10717 10714
10745 10746 10747 10749 10750 10752 10753 10754 10755 10757 10758 10759 10760 10761 10762 10763 10763 10763 10763 10764 10765 10766 10767 10768 10769 10770 10771 10772 10773 10774 10774 10775 10776 10776 10776 10777 10777 10778 10778 10779 10779 10779 10778 10778 10778 10778 10778 10778 10777 10777 10777 10777 10776 10776 10775 10775 10774 10773 10772 10771 10770 10769 10768 10767 10765 10763 10762 10760 10759 10757 10755 10754 10752 10750 10748 10745 10743 10741 10738 10736 10734 10731 10728 10726 10723 10721 10718 10715
10742 10744 10745 10747 10748 10750 10751 10752 10753 10754 10756 10757 10758 10759 10760 10761 10761 10762 10762 10763 10764 10765 10767 10768 10769 10770 10771 10772 10773 10773 10774 10775 10775 10776 10776 10777 10777 10778 10778 10779 10779 10779 10778 10778 10778 10778 10778 10778 10777 10777 10776 10776 10775 10775 10775 10774 10773 10773 10772 10771 10770 10769 10768 10766 10765 10763 10762 10760 10759 10757 10755 10753 10752 10750 10747 10745 10743 10741 10739 10737 10734 10732 10729 10727 10724 10721 10718 10715
10739 10741 10742 10744 10746 10747 10748 10750 10751 10752 10754 10755 10756 10757 10758 10759 10760 10760 10761 10762 10764 10765 10767 10768 10769 10770 10771 10772 10772 10773 10774 10774 10775 10776 10776 10777 10777 10778 10778 10779 10779 10778 10778 10778 10778 10778 10778 10777 10777 10777 10776 10776 10775 10775 10774 10773 10773 10772 10771 10771 10770 10768 10767 10765 10764 10763 10761 10760 10758 10756 10754 10753 10751 10749 10747 10745 10743 10741 10739 10736 10734 10732 10730 10727 10724 10721 10718 10715
10736 10738 10740 10741 10743 10744 10746 10747 10748 10750 10751 10753 10754 10755 10756 10757 10758 10759 10760 10762 10764 10765 10767 10768 10769 10770 10771 10771 10772 10773 10774 10774 10775 10776 10776 10777 10777 10778 10778 10778 10778 10778 10778 10778 10778 10778 10778 10777 10777 10776 10776 10775 10775 10774 10773 10773 10772 10771 10771 10770 10769 10767 10766 10765 10764 10762 10761 10759 10757 10755 10754 10752 10750 10748 10746 10744 10742 10740 10737 10735 10733 10730 10728 10726 10723 10720 10717 10714
10733 10735 10737 10738 10740 10742 10743 10744 10746 10747 10749 10750 10752 10753 10754 10756 10757 10758 10760 10762 10764 10765 10767 10768 10769 10770 10771 10771 10772 10773 10774 10774 10775 10775 10776 10777 10777 10777 10778 10778 10778 10778 10778 10778 10778 10777 10777 10777 10777 10776 10776 10775 10774 10774 10773 10772 10771 10771 10770 10769 10768 10767 10766 10765 10763 10762 10760 10758 10757 10755 10753 10751 10749 10747 10745 10743 10741 10738 10736 10733 10731 10728 10726 10724 10721 10719 10716 10713
10730 10731 10733 10735 10737 10738 10740 10742 10743 10745 10747 10748 10750 10751 10753 10755 10757 10758 10760 10762 10764 10765 10767 10768 10769 10770 10770 10771 10772 10773 10774 10774 10775 10775 10776 10776 10777 10777 10777 10777 10777 10778 10778 10778 10777 10777 10777 10777 10777 10776 10775 10775 10774 10773 10772 10772 10771 10770 10769 10768 10767 10766 10765 10764 10762 10761 10760 10758 10756 10754 10752 10750 10749 10747 10744 10742 10740 10738 10735 10732 10730 10727 10725 10722 10720 10717 10714 10711
10726 10728 10730 10732 10733 10735 10737 10739 10741 10743 10744 10746 10748 10750 10752 10755 10756 10758 10760 10762 10764 10765 10766 10768 10769 10770 10770 10771 10772 10773 10773 10774 10774 10775 10775 10776 10776 10777 10777 10777 10777 10777 10777 10777 10777 10777 10777 10776 10776 10775 10775 10774 10774 10773 10772 10771 10770 10769 10768 10767 10766 10765 10764 10763 10762 10761 10759 10757 10755 10754 10752 10750 10748 10746 10744 10742 10740 10737 10735 10732 10730 10727 10724 10721 10719 10716 10713 10710
10723 10725 10727 10729 10731 10733 10735 10737 10739 10741 10743 10745 10748 10750 10753 10755 10757 10759 10761 10762 10764 10765 10766 10768 10769 10769 10770 10771 10772 10772 10773 10773 10774 10774 10775 10775 10776 10776 10776 10776 10776 10776 10776 10776 10776 10776 10776 10776 10775 10775 10774 10773 10773 10772 10771 10770 10769 10768 10767 10766 10766 10765 10764 10762 10761 10759 10758 10756 10755 10753 10751 10749 10747 10745 10743 10741 10739 10737 10734 10732 10729 10727 10724 10721 10718 10715 10712 10709
10721 10723 10725 10727 10729 10731 10733 10736 10738 10741 10743 10746 10748 10751 10753 10755 10757 10759 10761 10762 10764 10765 10766 10767 10768 10769 10770 10770 10771 10772 10772 10772 10773 10773 10774 10775 10775 10775 10776 10776 10776 10776 10776 10775 10775 10775 10775 10774 10774 10773 10773 10772 10772 10771 10770 10769 10768 10767 10766 10765 10764 10763 10762 10761 10760 10758 10757 10755 10754 10752 10750 10748 10746 10744 10742 10740 10738 10736 10734 10731 10729 10726 10723 10720 10717 10714 10712 10709
10720 10722 10724 10727 10729 10731 10734 10736 10739 10741 10744 10747 10749 10752 10754 10756 10758 10759 10761 10762 10763 10765 10766 10767 10768 10768 10769 10770 10770 10771 10771 10772 10772 10773 10773 10774 10774 10775 10775 10775 10775 10775 10775 10774 10774 10774 10773 10773 10773 10772 10772 10771 10770 10770 10769 10768 10767 10766 10765 10764 10763 10762 10761 10760 10758 10757 10755 10754 10752 10751 10749 10747 10745 10743 10741 10739 10736 10734 10732 10730 10728 10725 10722 10719 10716 10713 10711 10708
10721 10723 10725 10728 10730 10733 10735 10738 10740 10743 10745 10748 10750 10752 10754 10756 10758 10759 10760 10762 10763 10764 10765 10766 10767 10768 10768 10769 10769 10770 10770 10771 10772 10772 10773 10773 10774 10774 10774 10774 10774 10774 10774 10773 10773 10772 10772 10771 10771 10770 10770 10770 10769 10768 10768 10767 10766 10765 10764 10763 10761 10760 10759 10758 10757 10756 10754 10752 10751 10749 10748 10746 10744 10742 10739 10737 10735 10732 10730 10728 10725 10723 10720 10718 10715 10712 10709 10706
10723 10725 10727 10730 10732 10734 10737 10739 10742 10744 10746 10749 10751 10753 10754 10756 10757 10758 10760 10761 10762 10763 10764 10765 10766 10767 10767 10768 10768 10769 10770 10770 10771 10771 10772 10772 10772 10773 10773 10773 10773 10773 10773 10772 10772 10771 10770 10770 10769 10769 10768 10768 10768 10767 10766 10765 10764 10763 10762 10761 10760 10759 10758 10756 10755 10754 10752 10750 10748 10747 10746 10744 10742 10740 10738 10735 10733 10730 10728 10725 10723 10720 10718 10715 10713 10710 10708 10705
10725 10727 10730 10732 10734 10736 10739 10741 10743 10745 10747 10749 10751 10753 10754 10755 10757 10758 10759 10760 10762 10763 10763 10764 10765 10766 10766 10767 10767 10768 10769 10769 10770 10770 10770 10771 10771 10771 10771 10771 10771 10771 10771 10771 10770 10770 10769 10769 10768 10768 10767 10766 10766 10765 10764 10763 10762 10761 10760 10759 10758 10757 10756 10754 10753 10751 10750 10748 10746 10744 10743 10742 10739 10737 10735 10733 10730 10728 10725 10723 10720 10718 10715 10713 10711 10708 10705 10703
10728 10730 10732 10734 10736 10738 10740 10742 10744 10746 10748 10749 10751 10752 10754 10755 10756 10757 10759 10760 10761 10762 10763 10763 10764 10765 10765 10766 10766 10767 10767 10768 10768 10769 10769 10769 10770 10770 10770 10770 10770 10769 10769 10769 10768 10768 10768 10767 10767 10766 10766 10765 10764 10763 10762 10761 10760 10759 10758 10757 10756 10754 10753 10752 10750 10749 10747 10746 10744 10741 10739 10738 10736 10734 10732 10730 10727 10725 10723 10720 10717 10715 10712 10710 10707 10705 10703 10700
10730 10732 10733 10735 10737 10739 10741 10743 10744 10746 10748 10749 10751 10752 10753 10754 10756 10757 10758 10759 10760 10761 10761 10762 10763 10763 10764 10765 10765 10766 10766 10767 10767 10767 10768 10768 10768 10768 10768 10768 10768 10768 10767 10767 10767 10766 10766 10765 10765 10764 10764 10763 10762 10761 10760 10759 10758 10757 10755 10754 10753 10752 10751 10749 10748 10746 10745 10743 10742 10739 10736 10734 10733 10731 10728 10726 10724 10722 10719 10717 10715 10712 10710 10707 10705 10702 10700 10697
10731 10733 10734 10736 10738 10739 10741 10743 10744 10746 10747 10749 10750 10751 10752 10754 10755 10756 10757 10758 10759 10760 10760 10761 10762 10762 10763 10763 10764 10764 10765 10765 10766 10766 10766 10766 10766 10766 10766 10766 10766 10766 10765 10765 10765 10764 10764 10763 10762 10762 10761 10760 10760 10759 10758 10757 10755 10754 10753 10752 10751 10750 10748 10747 10745 10743 10742 10740 10739 10736 10733 10731 10730 10727 10724 10722 10720 10718 10716 10713 10711 10709 10707 10705 10702 10700 10697 10694
10732 10734 10735 10737 10738 10740 10741 10743 10744 10745 10747 10748 10749 10750 10752 10753 10754 10755 10756 10757 10758 10759 10759 10760 10760 10761 10762 10762 10763 10763 10763 10764 10764 10764 10764 10764 10764 10764 10764 10764 10764 10764 10763 10763 10762 10762 10761 10761 10760 10759 10758 10757 10757 10756 10755 10754 10753 10752 10751 10749 10748 10747 10746 10744 10742 10740 10738 10736 10735 10733 10729 10727 10727 10725 10720 10718 10716 10714 10713 10710 10707 10705 10704 10702 10700 10697 10695 10692
10733 10735 10736 10737 10739 10740 10741 10742 10744 10745 10746 10747 10749 10750 10751 10752 10753 10754 10755 10756 10757 10757 10758 10759 10759 10760 10760 10760 10761 10761 10762 10762 10762 10762 10762 10762 10762 10762 10762 10762 10762 10761 10761 10760 10760 10759 10759 10758 10757 10757 10756 10755 10754 10753 10752 10751 10750 10749 10748 10746 10745 10743 10742 10741 10739 10738 10736 10732 10730 10729 10726 10722 10724 10723 10718 10714 10712 10709 10709 10707 10704 10701 10699 10697 10696 10693 10691 10688
10734 10735 10736 10737 10739 10740 10741 10742 10743 10744 10746 10747 10748 10749 10750 10751 10752 10753 10754 10754 10755 10756 10757 10757 10758 10758 10758 10759 10759 10759 10759 10760 10760 10760 10760 10760 10760 10760 10760 10759 10759 10759 10758 10758 10757 10757 10756 10756 10755 10754 10753 10752 10751 10750 10749 10748 10747 10746 10745 10744 10742 10739 10738 10737 10735 10734 10733 10730 10727 10726 10723 10718 10719 10720 10717 10713 10710 10707 10704 10703 10701 10697 10695 10693 10691 10688 10686 10683
10734 10735 10736 10737 10738 10739 10740 10742 10743 10744 10745 10746 10747 10748 10749 10750 10751 10751 10752 10753 10754 10754 10755 10755 10756 10756 10756 10756 10757 10757 10757 10757 10758 10758 10758 10758 10758 10757 10757 10757 10756 10756 10755 10755 10754 10754 10754 10753 10752 10752 10751 10750 10748 10747 10746 10745 10744 10743 10742 10741 10739 10737 10735 10733 10732 10730 10729 10727 10723 10722 10721 10717 10714 10714 10712 10710 10709 10705 10702 10700 10698 10695 10692 10690 10687 10684 10681 10678
10733 10734 10735 10736 10737 10739 10740 10741 10742 10743 10744 10745 10746 10747 10747 10748 10749 10750 10751 10751 10752 10753 10753 10753 10754 10754 10754 10754 10754 10754 10755 10755 10755 10755 10755 10755 10755 10755 10755 10754 10754 10753 10753 10752 10752 10751 10751 10750 10749 10748 10748 10747 10745 10744 10743 10741 10739 10738 10738 10738 10736 10734 10732 10730 10728 10726 10725 10724 10721 10718 10717 10714 10711 10710 10707 10704 10703 10701 10697 10696 10694 10692 10690 10687 10685 10681 10677 10674
10732 10733 10734 10735 10736 10738 10739 10740 10741 10741 10742 10743 10744 10745 10746 10746 10747 10748 10749 10749 10750 10750 10751 10751 10752 10752 10752 10752 10752 10752 10752 10752 10753 10753 10753 10753 10753 10752 10752 10751 10751 10750 10750 10749 10749 10748 10748 10747 10746 10745 10744 10744 10743 10741 10739 10737 10735 10733 10732 10732 10732 10730 10728 10726 10724 10722 10721 10720 10718 10716 10714 10710 10709 10708 10704 10700 10699 10697 10693 10690 10688 10687 10686 10684 10681 10678 10674 10670
10731 10732 10733 10734 10735 10736 10737 10738 10739 10739 10740 10741 10742 10743 10744 10744 10745 10746 10746 10747 10747 10748 10749 10749 10749 10749 10750 10750 10750 10750 10750 10750 10750 10750 10750 10750 10750 10749 10749 10749 10748 10747 10747 10746 10746 10745 10744 10743 10743 10741 10740 10740 10740 10738 10736 10733 10731 10727 10726 10726 10726 10725 10723 10722 10720 10719 10717 10716 10714 10713 10711 10706 10704 10705 10701 10697 10695 10693 10690 10687 10683 10681 10680 10679 10676 10673 10669 10665
10729 10730 10731 10732 10733 10734 10735 10736 10737 10737 10738 10739 10740 10740 10741 10742 10743 10743 10744 10744 10745 10745 10746 10746 10746 10747 10747 10747 10747 10747 10747 10747 10747 10747 10747 10747 10747 10747 10746 10745 10745 10745 10744 10743 10742 10742 10741 10740 10739 10738 10736 10735 10736 10736 10733 10731 10728 10723 10720 10719 10720 10720 10718 10716 10715 10714 10713 10712 10710 10708 10707 10703 10700 10699 10697 10693 10691 10688 10685 10682 10679 10677 10675 10674 10670 10667 10663 10659
10727 10728 10729 10730 10731 10731 10732 10733 10734 10735 10736 10736 10737 10738 10738 10739 10740 10740 10741 10741 10742 10742 10743 10743 10743 10744 10744 10744 10744 10744 10744 10744 10744 10744 10744 10744 10743 10743 10743 10742 10742 10741 10740 10740 10739 10738 10737 10736 10735 10735 10732 10729 10730 10731 10730 10728 10725 10721 10717 10715 10714 10714 10713 10711 10709 10708 10708 10708 10706 10704 10702 10699 10697 10694 10692 10689 10686 10683 10680 10676 10674 10672 10670 10669 10665 10661 10658 10655
10724 10725 10726 10727 10728 10728 10729 10730 10731 10732 10733 10734 10734 10735 10736 10736 10736 10737 10738 10738 10738 10739 10739 10740 10740 10740 10740 10740 10740 10740 10740 10741 10741 10740 10740 10740 10740 10739 10739 10738 10738 10737 10736 10735 10734 10733 10733 10732 10731 10731 10730 10725 10724 10725 10725 10724 10721 10716 10713 10711 10710 10709 10709 10707 10704 10701 10701 10702 10702 10700 10697 10695 10693 10691 10688 10685 10682 10677 10673 10669 10667 10667 10665 10662 10659 10656 10653 10650